Tracking 18987 objects as of 25-Feb-2018
HD Live streaming from Space Station
objects crossing your sky now

NOAA 16 DEB

Track NOAA 16 DEB now!
10-day predictions


NORAD ID: 41068
Int'l Code: 2000-055AB
Perigee: 679.4 km
Apogee: 914.2 km
Inclination: 99.1 °
Period: 100.7 minutes
Semi major axis: 7167 km
RCS: Unknown
Launch date: September 21, 2000
Source: United States (US)
Launch site: AIR FORCE WESTERN TEST RANGE (AFWTR)

Note: This is SATELLITE DEBRIS
aabbcc
Your satellite tracking list
Your tracking list is empty




NASA's NSSDC Master Catalog

Two Line Element Set (TLE):
1 41068U 00055AB  18055.85453484  .00000284  00000-0  11169-3 0  9994
2 41068  99.1181 176.2405 0163748 311.6306  47.0946 14.30620918117322
Source of the keplerian elements: AFSPC